CZ-6A DEB, 54923

Orbit data source: Space-Track

CZ-6A DEB, 54923 is space debris in SSO originally from a launch on Fri, 11 Nov 2022 UTC launched from the Taiyaun Space Center, China (TSC). Debris objects in space refer to the collection of defunct objects orbiting the Earth. Examples of debris include non-operational satellites, rocket bodies, and fragments generated from explosions, collisions, or faulty payload assembly.

Loading next visibility...
Identifier
54923, 2022-151RL
Orbit
SSO
Country
Flag of CNCN / PRC
Related business
Manufacturer
SAST
Mission
Spacecraft
Bus & Motor
Unknown
Mass
Unknown
Launch date (UTC)
2022-11-11 (4 years ago)
Launch vehicle
Unknown
Launch site
Taiyaun Space Center, China (TSC)
Object type
Payload
Rocket body
Debris
Shape & HBR
Unknown shape, 0.1 m
Radar Cross Section
Medium (>0.1 m² and <1 m²)

Expand to show TLE details & history
Last TLE update: 2 days ago

TLE from 2 days ago
0 CZ-6A DEB
1 54923U 22151RL  26171.43011833  .00000222  00000-0  15356-3 0  9993
2 54923  98.8545 168.3192 0054086 347.4341  12.5476 14.08220802181634
Epoch: 2026-06-20T10:19Z
TLE epoch observation values (Epoch: 2026-06-20T10:19:22.223Z)
Latitude
-0.00011°
Longitude
104.83176°
Altitude
830.121 km
Speed
7.458 km/s
True Right ascension
11h 13m 16s
True Declination
0° 00' 00"
Sunlit
Object was in daylight at epoch
Visualization orbit readout
Latitude
Unknown
Longitude
Unknown
Altitude
Unknown
Speed
Unknown
Apparent Right ascension
Unknown
Apparent Declination
Unknown
Sunlit
N/A
Visualization observer readout
Local Sidereal Time
21:26:35
Azimuth
Unknown
Elevation
Unknown
Doppler factor
Unknown
Orbital elements
Apogee altitude
901.81 km
Perigee altitude
823.485 km
Semi-major axis
7,240.785 km
Eccentricity
0.00541
Inclination
98.8545°
RAAN
168.3192°
Arg. of periapsis
347.4341°
True anomaly
12.68314°
Mean anomaly
12.5476°
Eccentric anomaly
12.61528°
Mean motion
3.52261 °/min
Orbital period
102.2 mins
BSTAR
0.00015356
Loading maneuver chart data...
Computing Atmospheric mass density...
Loading historical data...
Loading historical data...
Loading historical data...
Loading historical data...
Loading historical data...
Loading historical data...
Loading historical data...

Documentation

Showing up to 5 results
|